[Iaude] MPEC L62: 2020 LV [a=0.92,e=0.15,i=5.5,H=25.3]

mpec at marsden.cfa.harvard.edu mpec at marsden.cfa.harvard.edu
Mon Jun 15 18:29:03 EDT 2020


M.P.E.C. 2020-L62                                 Issued 2020 June 15, 22:27 UT

     The Minor Planet Electronic Circulars contain information on unusual
         minor planets and routine data on comets.  They are published
    on behalf of Division F of the International Astronomical Union by the
          Minor Planet Center, Smithsonian Astrophysical Observatory,
                          Cambridge, MA 02138, U.S.A.

             Prepared using the Tamkin Foundation Computer Network

                              MPC at CFA.HARVARD.EDU
            URL https://www.minorplanetcenter.net/    ISSN 1523-6714

                                    2020 LV                                     


Observations:
     K20L00V* C2020 06 14.38305 21 32 33.54 +15 44 51.4          19.9 GVEL062G96
     K20L00V  C2020 06 14.39336 21 32 40.92 +15 44 59.0          19.4 GVEL062G96
     K20L00V  C2020 06 14.39848 21 32 44.56 +15 45 02.6          20.1 GVEL062G96
     K20L00V  C2020 06 14.44936 21 33 20.54 +15 45 35.3          19.5 GVEL062I52
     K20L00V  C2020 06 14.44979 21 33 20.83 +15 45 35.5          19.4 GVEL062I52
     K20L00V  C2020 06 14.45021 21 33 21.14 +15 45 35.8          19.3 GVEL062I52
     K20L00V  C2020 06 14.45063 21 33 21.44 +15 45 36.1          19.1 GVEL062I52
     K20L00V KC2020 06 15.03324921 41 58.31 +15 47 42.8          19.4 GVEL062J95
     K20L00V KC2020 06 15.03709521 42 01.65 +15 47 44.7          19.8 GVEL062J95
     K20L00V KC2020 06 15.04096921 42 04.98 +15 47 47.4          19.5 GVEL062J95
     K20L00V KC2020 06 15.04583821 42 09.12 +15 47 51.2          19.6 GVEL062J95
     K20L00V KC2020 06 15.37574621 47 16.04 +15 51 07.1          19.8 VuEL062H21
     K20L00V KC2020 06 15.37751621 47 17.55 +15 51 07.7          19.8 VuEL062H21
     K20L00V KC2020 06 15.37915021 47 18.96 +15 51 08.2          19.6 VuEL062H21
     K20L00V  C2020 06 15.78219 21 54 19.21 +15 51 56.5          19.2 GVEL062N88
     K20L00V  C2020 06 15.78258 21 54 19.60 +15 51 55.6          19.0 GVEL062N88
     K20L00V  C2020 06 15.78339 21 54 20.33 +15 51 57.7          19.5 GVEL062N88
     K20L00V  C2020 06 15.78376 21 54 20.69 +15 51 56.6          19.5 GVEL062N88

Observer details:
G96 Mt. Lemmon Survey.  Observer H. Groeller.  Measurers E. J. Christensen, G.
    A. Farneth, D. C. Fuls, A. R. Gibbs, A. D. Grauer, H. Groeller, R. A.
    Kowalski, S. M. Larson, G. J. Leonard, T. A. Pruyne, D. Rankin, R. L.
    Seaman, F. C. Shelly, K. W. Wierzchos.  1.5-m reflector + 10K CCD.
H21 Astronomical Research Observatory, Westfield.  Observer R. Holmes.
    Measurers S. Foglia, L. Buzzi, T. Linder, R. Holmes.  0.76-m f/3.0
    astrograph + CCD.
I52 Steward Observatory, Mt. Lemmon Station.  Observer D. Rankin.  Measurers
    E. J. Christensen, G. A. Farneth, D. C. Fuls, A. R. Gibbs, A. D. Grauer,
    H. Groeller, R. A. Kowalski, S. M. Larson, G. J. Leonard, T. A. Pruyne, D.
    Rankin, R. L. Seaman, F. C. Shelly, K. W. Wierzchos.  1.0-m reflector +
    CCD.
J95 Great Shefford.  Observer P. Birtwhistle.  0.41-m f/6.3 Schmidt-Cassegrain
    + CCD.
N88 Xingming Observatory #3, Nanshan.  Observer X. Gao.  Measurer Q.-Z. Ye.
    0.6-m f/8 Ritchey-Chretien + CCD.

Orbital elements:
2020 LV                                                  Earth MOID = 0.0035 AU
Epoch 2020 May 31.0 TT = JDT 2459000.5                  Pan
M 210.07308              (2000.0)            P               Q
n   1.11770052     Peri.  317.41561     +0.64729636     -0.75622630
a   0.9195720      Node    92.01306     +0.72255052     +0.56883296
e   0.1504730      Incl.    5.48619     +0.24275126     +0.32334324
P   0.88           H   25.3           G   0.15           U   7
Residuals in seconds of arc
200614 G96  0.1-  0.3+    200614 I52  0.1+  0.2+    200615 H21  0.3+  0.1+
200614 G96  0.2+  0.2+    200615 J95  0.4-  0.2+    200615 H21  0.4+  0.1-
200614 G96  0.1+  0.1+    200615 J95  0.1+  0.5-    200615 N88  0.4+  0.5+
200614 I52  0.0   0.1+    200615 J95  0.3+  0.3-    200615 N88  0.5+  0.6-
200614 I52  0.1-  0.0     200615 J95  0.1-  0.3+    200615 N88  0.5-  1.0+
200614 I52  0.1+  0.1+    200615 H21  0.4+  0.3+    200615 N88  0.6-  0.3-

Ephemeris:
2020 LV                  a,e,i = 0.92, 0.15, 5                   q = 0.7812
Date    TT    R. A. (2000) Decl.     Delta      r    Elong.  Phase     V
2020 05 16    19 35 29.5 +10 57 20   0.1022  1.0551   112.9    62.0    22.7
...
2020 05 31    20 06 14.1 +13 21 40   0.06266 1.0437   116.8    60.1    21.5
...
2020 06 08    20 37 00.3 +14 40 00   0.04182 1.0340   116.0    61.9    20.7
...
2020 06 14    21 27 19.0 +15 43 19   0.02694 1.0253   110.1    68.4    19.9
2020 06 15    21 41 15.1 +15 51 19   0.02464 1.0237   108.1    70.6    19.8
2020 06 16    21 57 56.7 +15 56 04   0.02243 1.0221   105.4    73.4    19.7
...
2020 06 22    01 12 53.0 +10 57 12   0.01388 1.0117    69.8   109.4    20.2
...
2020 06 30    05 13 23.9 -04 38 25   0.02518 0.9960    34.4   144.8    24.8
...
2020 07 15    06 37 39.5 -07 51 28   0.06602 0.9617    32.9   145.0    26.9

M. P. C. Staff               (C) Copyright 2020 MPC           M.P.E.C. 2020-L62




More information about the Iaude mailing list